Weather History for Columbia Owens, SC

Change the Weather History Date:

Sunday, November 18, 2012

  Actual Average Record
Temperature  
Mean Temperature 55 °F 55 °F  
Max Temperature 60 °F 67 °F 84 °F (2013)
Min Temperature 49 °F 44 °F 27 °F (2014)
Degree Days  
Heating Degree Days 10 10  
Month to date heating degree days 192 143  
Since 1 July heating degree days 266 232  
Cooling Degree Days 0 0  
Month to date cooling degree days 1 11  
Year to date cooling degree days 2516 2253  
Growing Degree Days 4 (Base 50)    
Moisture  
Dew Point 42 °F    
Average Humidity 63    
Maximum Humidity 77    
Minimum Humidity 41    
Precipitation  
Precipitation T in 0.11 in 0.07 in (2000)
Month to date precipitation 1.33 1.72  
Year to date precipitation 39.46 40.93  
Sea Level Pressure  
Sea Level Pressure 30.34 in    
Wind  
Wind Speed 5 mph (NNE)    
Max Wind Speed 13 mph    
Max Gust Speed 23 mph    
Visibility 10 miles    
Events Rain    
T = Trace of Precipitation, MM = Missing Value Source: NWS Daily Summary

Daily Weather History Graph

Daily Weather History Graph

Search for Another Location

Airport:

Trip Planner

Search our weather history database for the weather conditions in past years. The results will help you decide how hot, cold, wet, or windy it might be!

Date:

Astronomy

Nov. 18, 2012 Rise Set
Actual Time 6:59 AM EST 5:18 PM EST
Civil Twilight 6:32 AM EST 5:45 PM EST
Nautical Twilight 6:02 AM EST 6:15 PM EST
Astronomical Twilight 5:32 AM EST 6:45 PM EST
Moon 11:28 AM EST (11/18) 10:32 PM EST (11/18)
Length of Visible Light 11h 12m
Length of Day
10h 18m
Waxing Crescent, 30% of the Moon is Illuminated
Nov 18
Waxing Crescent
Nov 20
First Quarter
Nov 28
Full
Dec 6
Last Quarter
Dec 13
New

Hourly Weather History & Observations

Time (EST) Temp. Dew Point Humidity Pressure Visibility Wind Dir Wind Speed Gust Speed Precip Events Conditions
12:42 AM 51.8 °F 33.8 °F 50% 30.38 in 10.0 mi Variable 5.8 mph - N/A   Overcast
12:53 AM 52.0 °F 33.1 °F 49% 30.38 in 10.0 mi Variable 6.9 mph - N/A   Overcast
1:07 AM 51.8 °F 33.8 °F 50% 30.38 in 10.0 mi NE 6.9 mph - N/A   Overcast
1:53 AM 52.0 °F 35.1 °F 53% 30.38 in 10.0 mi Variable 5.8 mph - N/A   Overcast
2:53 AM 51.1 °F 37.0 °F 59% 30.37 in 10.0 mi Variable 6.9 mph - N/A   Overcast
3:53 AM 51.1 °F 37.9 °F 61% 30.36 in 10.0 mi ENE 5.8 mph - N/A   Overcast
4:53 AM 51.1 °F 39.0 °F 63% 30.38 in 10.0 mi Calm Calm - N/A   Overcast
5:53 AM 50.0 °F 39.0 °F 66% 30.39 in 10.0 mi Variable 4.6 mph - N/A   Overcast
6:15 AM 50.0 °F 39.2 °F 66% 30.38 in 10.0 mi Variable 4.6 mph - N/A   Overcast
6:53 AM 48.9 °F 39.0 °F 69% 30.38 in 10.0 mi Variable 3.5 mph - N/A   Mostly Cloudy
7:53 AM 48.9 °F 39.0 °F 69% 30.40 in 10.0 mi Variable 5.8 mph - N/A   Overcast
8:53 AM 50.0 °F 41.0 °F 71% 30.40 in 10.0 mi Variable 3.5 mph - N/A   Overcast
9:53 AM 51.1 °F 41.0 °F 68% 30.40 in 10.0 mi Calm Calm - N/A   Overcast
10:53 AM 52.0 °F 42.1 °F 69% 30.39 in 10.0 mi Variable 6.9 mph 16.1 mph N/A   Mostly Cloudy
11:53 AM 54.0 °F 43.0 °F 66% 30.36 in 10.0 mi NE 8.1 mph - N/A   Overcast
12:53 PM 55.0 °F 44.1 °F 67% 30.33 in 10.0 mi Variable 6.9 mph - N/A   Overcast
1:53 PM 57.0 °F 44.1 °F 62% 30.30 in 10.0 mi Variable 5.8 mph - N/A   Overcast
2:44 PM 57.2 °F 44.6 °F 63% 30.29 in 10.0 mi NNE 8.1 mph - N/A   Overcast
2:53 PM 57.9 °F 45.0 °F 62% 30.29 in 10.0 mi NNE 6.9 mph - N/A   Overcast
3:53 PM 60.1 °F 45.0 °F 57% 30.27 in 10.0 mi Variable 4.6 mph - N/A   Overcast
4:53 PM 60.1 °F 45.0 °F 57% 30.28 in 10.0 mi Variable 5.8 mph - N/A   Mostly Cloudy
5:53 PM 59.0 °F 46.0 °F 62% 30.30 in 10.0 mi Variable 4.6 mph - N/A   Overcast
6:53 PM 59.0 °F 45.0 °F 60% 30.30 in 10.0 mi Calm Calm - 0.00 in   Overcast
7:53 PM 59.0 °F 43.0 °F 55% 30.30 in 10.0 mi Variable 6.9 mph 23.0 mph N/A   Overcast
8:53 PM 57.9 °F 43.0 °F 58% 30.30 in 10.0 mi NNE 9.2 mph - N/A   Overcast
9:48 PM 55.4 °F 46.4 °F 72% 30.31 in 10.0 mi NNE 9.2 mph 19.6 mph N/A   Overcast
9:53 PM 55.0 °F 46.0 °F 72% 30.32 in 10.0 mi Variable 5.8 mph 19.6 mph N/A   Overcast
10:53 PM 54.0 °F 46.9 °F 77% 30.32 in 10.0 mi North 4.6 mph - N/A   Overcast
11:53 PM 53.1 °F 46.9 °F 80% 30.30 in 6.0 mi Variable 3.5 mph - 0.00 in Rain Light Rain